Surface/Precipitation History
02/13/2016 05:35  to  2/14/2016 05:35
Change End Date:
Date/Time
(MST)
Sf
Temp Chem Water Layer Surface Precipitation
Sfc Pvt Sub Frz Factor Pct Dpth DpthThk IcePct Cond Salin FI Type Intens Accum Rate
02/14/2016 05:25 Chemically Wet 21.4F - 29F 3F 95 50% 0.00 in - 0% 2001 mhos 15000 - None None - -
02/14/2016 05:19 Chemically Wet 21.4F - 29F 3F 95 50% 0.00 in - 0% 1495 mhos 15000 - None None - -
02/14/2016 05:10 Chemically Wet 21.9F - 29F 3F 95 50% 0.00 in - 0% 1498 mhos 15000 - None None - -
02/14/2016 05:09 Chemically Wet 22.1F - 29F 3F 95 50% 0.00 in - 0% 1497 mhos 15000 - None None - -
02/14/2016 04:59 Chemically Wet 22.6F - 29F 3F 95 50% 0.00 in - 0% 1497 mhos 15000 - None None - -
02/14/2016 04:55 Chemically Wet 22.6F - 29F 3F 95 50% 0.00 in - 0% 1497 mhos 15000 - None None - -
02/14/2016 04:49 Chemically Wet 23.0F - 29F 3F 95 50% 0.00 in - 0% 1497 mhos 15000 - None None - -
02/14/2016 04:40 Chemically Wet 23.2F - 29F 3F 95 50% 0.00 in - 0% 2005 mhos 15000 - None None - -
02/14/2016 04:39 Chemically Wet 23.2F - 29F 3F 95 50% 0.00 in - 0% 1497 mhos 15000 - None None - -
02/14/2016 04:29 Chemically Wet 23.0F - 29F 3F 95 50% 0.00 in - 0% 1497 mhos 15000 - None None - -
02/14/2016 04:25 Chemically Wet 23.4F - 29F 3F 95 50% 0.00 in - 0% 2005 mhos 15000 - None None - -
02/14/2016 04:19 Chemically Wet 23.4F - 29F 3F 95 50% 0.00 in - 0% 1497 mhos 15000 - None None - -
02/14/2016 04:10 Chemically Wet 23.4F - 29F 3F 95 50% 0.00 in - 0% 1497 mhos 15000 - None None - -
02/14/2016 04:09 Chemically Wet 23.4F - 29F 3F 95 50% 0.00 in - 0% 2005 mhos 15000 - None None - -
02/14/2016 03:59 Chemically Wet 23.2F - 29F 3F 95 50% 0.00 in - 0% 1497 mhos 15000 - None None - -
Date/Time
(MST)
Sf
Temp Chem Water Layer Surface Precipitation
Sfc Pvt Sub Frz Factor Pct Dpth DpthThk IcePct Cond Salin FI Type Intens Accum Rate
02/14/2016 03:55 Chemically Wet 23.4F - 29F 3F 95 50% 0.00 in - 0% 2005 mhos 15000 - None None - -
02/14/2016 03:49 Chemically Wet 23.7F - 29F 3F 95 50% 0.00 in - 0% 1497 mhos 15000 - None None - -
02/14/2016 03:40 Chemically Wet 23.7F - 29F 3F 95 50% 0.00 in - 0% 1497 mhos 15000 - None None - -
02/14/2016 03:38 Chemically Wet 23.7F - 29F 3F 95 50% 0.00 in - 0% 2005 mhos 15000 - None None - -
02/14/2016 03:28 Chemically Wet 24.1F - 29F 3F 95 50% 0.00 in - 0% 2005 mhos 15000 - None None - -
02/14/2016 03:25 Chemically Wet 24.1F - 29F 3F 95 50% 0.00 in - 0% 1497 mhos 15000 - None None - -
02/14/2016 03:18 Chemically Wet 23.9F - 29F 3F 95 50% 0.00 in - 0% 1497 mhos 15000 - None None - -
02/14/2016 03:10 Chemically Wet 23.9F - 29F 3F 95 50% 0.00 in - 0% 2005 mhos 15000 - None None - -
02/14/2016 03:08 Chemically Wet 24.1F - 29F 3F 95 50% 0.00 in - 0% 1497 mhos 15000 - None None - -
02/14/2016 02:58 Chemically Wet 24.1F - 29F 3F 95 50% 0.00 in - 0% 1497 mhos 15000 - None None - -
02/14/2016 02:55 Chemically Wet 23.9F - 29F 3F 95 50% 0.00 in - 0% 1497 mhos 15000 - None None - -
02/14/2016 02:48 Chemically Wet 24.4F - 29F 3F 95 50% 0.00 in - 0% 1497 mhos 15000 - None None - -
02/14/2016 02:40 Chemically Wet 24.6F - 29F 3F 95 50% 0.00 in - 0% 1497 mhos 15000 - None None - -
02/14/2016 02:38 Chemically Wet 24.6F - 29F 3F 95 50% 0.00 in - 0% 2005 mhos 15000 - None None - -
02/14/2016 02:28 Chemically Wet 24.6F - 29F 3F 95 50% 0.00 in - 0% 2005 mhos 15000 - None None - -
Date/Time
(MST)
Sf
Temp Chem Water Layer Surface Precipitation
Sfc Pvt Sub Frz Factor Pct Dpth DpthThk IcePct Cond Salin FI Type Intens Accum Rate
02/14/2016 02:25 Chemically Wet 24.6F - 29F 3F 95 50% 0.00 in - 0% 1497 mhos 15000 - None None - -
02/14/2016 02:18 Chemically Wet 24.6F - 29F 3F 95 50% 0.00 in - 0% 1497 mhos 15000 - None None - -
02/14/2016 02:10 Chemically Wet 24.8F - 29F 3F 95 50% 0.00 in - 0% 1498 mhos 15000 - None None - -
02/14/2016 02:08 Chemically Wet 24.6F - 29F 3F 95 50% 0.00 in - 0% 1497 mhos 15000 - None None - -
02/14/2016 01:58 Chemically Wet 24.6F - 29F 3F 95 50% 0.00 in - 0% 1497 mhos 15000 - None None - -
02/14/2016 01:55 Chemically Wet 24.8F - 29F 3F 95 50% 0.00 in - 0% 1497 mhos 15000 - None None - -
02/14/2016 01:48 Chemically Wet 24.8F - 29F 3F 95 50% 0.00 in - 0% 1497 mhos 15000 - None None - -
02/14/2016 01:40 Chemically Wet 24.8F - 29F 3F 95 50% 0.00 in - 0% 6189 mhos 15000 - None None - -
02/14/2016 01:38 Chemically Wet 24.8F - 29F 3F 95 50% 0.00 in - 0% 1497 mhos 15000 - None None - -
02/14/2016 01:28 Chemically Wet 25.2F - 29F 3F 95 50% 0.00 in - 0% 1497 mhos 15000 - None None - -
02/14/2016 01:25 Chemically Wet 25.2F - 29F 3F 95 50% 0.00 in - 0% 1497 mhos 15000 - None None - -
02/14/2016 01:18 Chemically Wet 25.3F - 29F 3F 95 50% 0.00 in - 0% 1497 mhos 15000 - None None - -
02/14/2016 01:10 Chemically Wet 25.7F - 29F 3F 95 50% 0.00 in - 0% 1498 mhos 15000 - None None - -
02/14/2016 01:08 Chemically Wet 25.5F - 29F 3F 95 50% 0.00 in - 0% 1498 mhos 15000 - None None - -
02/14/2016 00:58 Chemically Wet 25.5F - 29F 3F 95 50% 0.00 in - 0% 1498 mhos 15000 - None None - -
Date/Time
(MST)
Sf
Temp Chem Water Layer Surface Precipitation
Sfc Pvt Sub Frz Factor Pct Dpth DpthThk IcePct Cond Salin FI Type Intens Accum Rate
02/14/2016 00:55 Chemically Wet 25.7F - 29F 3F 95 50% 0.00 in - 0% 1498 mhos 15000 - None None - -
02/14/2016 00:48 Chemically Wet 25.7F - 29F 3F 95 50% 0.00 in - 0% 1498 mhos 15000 - None None - -
02/14/2016 00:40 Chemically Wet 25.7F - 29F 3F 95 50% 0.00 in - 0% 1498 mhos 15000 - None None - -
02/14/2016 00:38 Chemically Wet 25.7F - 29F 3F 95 50% 0.00 in - 0% 1498 mhos 15000 - None None - -
02/14/2016 00:27 Chemically Wet 25.9F - 29F 3F 95 50% 0.00 in - 0% 1498 mhos 15000 - None None - -
02/14/2016 00:25 Chemically Wet 25.9F - 29F 3F 95 50% 0.00 in - 0% 1498 mhos 15000 - None None - -
02/14/2016 00:17 Chemically Wet 25.9F - 29F 3F 95 50% 0.00 in - 0% 1498 mhos 15000 - None None - -
02/14/2016 00:10 Chemically Wet 26.1F - 29F 3F 95 50% 0.00 in - 0% 1498 mhos 15000 - None None - -
02/14/2016 00:07 Chemically Wet 25.9F - 29F 3F 95 50% 0.00 in - 0% 1498 mhos 15000 - None None - -
02/13/2016 23:57 Chemically Wet 26.1F - 29F 3F 95 50% 0.00 in - 0% 1498 mhos 15000 - None None - -
02/13/2016 23:55 Chemically Wet 26.1F - 29F 3F 95 50% 0.00 in - 0% 1498 mhos 15000 - None None - -
02/13/2016 23:47 Chemically Wet 26.2F - 29F 3F 95 50% 0.00 in - 0% 1497 mhos 15000 - None None - -
02/13/2016 23:40 Chemically Wet 26.1F - 29F 3F 95 50% 0.00 in - 0% 1497 mhos 15000 - None None - -
02/13/2016 23:37 Chemically Wet 26.1F - 29F 3F 95 50% 0.00 in - 0% 1194 mhos 15000 - None None - -
02/13/2016 23:27 Chemically Wet 26.2F - 29F 3F 95 50% 0.00 in - 0% 1194 mhos 15000 - None None - -
Date/Time
(MST)
Sf
Temp Chem Water Layer Surface Precipitation
Sfc Pvt Sub Frz Factor Pct Dpth DpthThk IcePct Cond Salin FI Type Intens Accum Rate
02/13/2016 23:25 Chemically Wet 26.2F - 29F 3F 95 50% 0.00 in - 0% 1497 mhos 15000 - None None - -
02/13/2016 23:17 Chemically Wet 26.2F - 29F 3F 95 50% 0.00 in - 0% 1194 mhos 15000 - None None - -
02/13/2016 23:10 Chemically Wet 26.2F - 29F 3F 95 50% 0.00 in - 0% 1195 mhos 15000 - None None - -
02/13/2016 23:07 Chemically Wet 26.2F - 29F 3F 95 50% 0.00 in - 0% 1195 mhos 15000 - None None - -
02/13/2016 22:57 Chemically Wet 26.2F - 29F 3F 95 50% 0.00 in - 0% 1195 mhos 15000 - None None - -
02/13/2016 22:55 Chemically Wet 26.2F - 29F 3F 95 50% 0.00 in - 0% 1195 mhos 15000 - None None - -
02/13/2016 22:47 Chemically Wet 26.1F - 29F 3F 95 50% 0.00 in - 0% 1195 mhos 15000 - None None - -
02/13/2016 22:40 Chemically Wet 26.2F - 29F 3F 95 50% 0.00 in - 0% 1194 mhos 15000 - None None - -
02/13/2016 22:37 Chemically Wet 26.4F - 29F 3F 95 50% 0.00 in - 0% 996 mhos 15000 - None None - -
02/13/2016 22:27 Chemically Wet 26.2F - 29F 3F 95 50% 0.00 in - 0% 852 mhos 15000 - None None - -
02/13/2016 22:25 Chemically Wet 26.2F - 29F 3F 95 50% 0.00 in - 0% 852 mhos 15000 - None None - -
02/13/2016 22:17 Chemically Wet 26.4F - 29F 3F 95 50% 0.00 in - 0% 742 mhos 15000 - None None - -
02/13/2016 22:10 Chemically Wet 26.6F - 29F 3F 95 50% 0.00 in - 0% 740 mhos 15000 - None None - -
02/13/2016 22:07 Chemically Wet 26.4F - 29F 3F 95 50% 0.00 in - 0% 740 mhos 15000 - None None - -
02/13/2016 21:57 Chemically Wet 26.8F - 29F 3F 95 50% 0.00 in - 0% 660 mhos 15000 - None None - -
Date/Time
(MST)
Sf
Temp Chem Water Layer Surface Precipitation
Sfc Pvt Sub Frz Factor Pct Dpth DpthThk IcePct Cond Salin FI Type Intens Accum Rate
02/13/2016 21:55 Chemically Wet 26.8F - 29F 3F 95 50% 0.00 in - 0% 594 mhos 15000 - None None - -
02/13/2016 21:47 Chemically Wet 26.8F - 29F 3F 95 50% 0.00 in - 0% 594 mhos 15000 - None None - -
02/13/2016 21:40 Chemically Wet 26.8F - 29F 3F 95 50% 0.00 in - 0% 594 mhos 15000 - None None - -
02/13/2016 21:37 Chemically Wet 27.0F - 29F 3F 95 50% 0.00 in - 0% 594 mhos 15000 - None None - -
02/13/2016 21:27 Chemically Wet 27.0F - 29F 3F 95 50% 0.00 in - 0% 594 mhos 15000 - None None - -
02/13/2016 21:25 Chemically Wet 27.0F - 29F 3F 95 50% 0.00 in - 0% 594 mhos 15000 - None None - -
02/13/2016 21:16 Chemically Wet 27.0F - 29F 3F 95 50% 0.00 in - 0% 661 mhos 15000 - None None - -
02/13/2016 21:10 Chemically Wet 27.1F - 29F 3F 95 50% 0.00 in - 0% 594 mhos 15000 - None None - -
02/13/2016 21:06 Chemically Wet 27.0F - 29F 3F 95 50% 0.00 in - 0% 594 mhos 15000 - None None - -
02/13/2016 20:56 Chemically Wet 26.8F - 29F 3F 95 50% 0.00 in - 0% 594 mhos 15000 - None None - -
02/13/2016 20:55 Chemically Wet 26.8F - 29F 3F 95 50% 0.00 in - 0% 594 mhos 15000 - None None - -
02/13/2016 20:46 Chemically Wet 27.0F - 29F 3F 95 50% 0.00 in - 0% 594 mhos 15000 - None None - -
02/13/2016 20:40 Chemically Wet 27.0F - 29F 3F 95 50% 0.00 in - 0% 594 mhos 15000 - None None - -
02/13/2016 20:36 Chemically Wet 26.8F - 29F 3F 95 50% 0.00 in - 0% 661 mhos 15000 - None None - -
02/13/2016 20:26 Chemically Wet 26.8F - 29F 3F 95 50% 0.00 in - 0% 661 mhos 15000 - None None - -
Date/Time
(MST)
Sf
Temp Chem Water Layer Surface Precipitation
Sfc Pvt Sub Frz Factor Pct Dpth DpthThk IcePct Cond Salin FI Type Intens Accum Rate
02/13/2016 20:25 Chemically Wet 26.8F - 29F 3F 95 50% 0.00 in - 0% 661 mhos 15000 - None None - -
02/13/2016 20:16 Chemically Wet 27.3F - 29F 3F 95 50% 0.00 in - 0% 661 mhos 15000 - None None - -
02/13/2016 20:10 Chemically Wet 27.9F - 29F 3F 95 50% 0.00 in - 0% 660 mhos 15000 - None None - -
02/13/2016 20:06 Chemically Wet 27.9F - 29F 3F 95 50% 0.00 in - 0% 660 mhos 15000 - None None - -
02/13/2016 19:56 Chemically Wet 28.0F - 29F 3F 95 50% 0.00 in - 0% 659 mhos 15000 - None None - -
02/13/2016 19:55 Chemically Wet 28.0F - 29F 3F 95 50% 0.00 in - 0% 659 mhos 15000 - None None - -
02/13/2016 19:46 Chemically Wet 28.0F - 29F 3F 95 50% 0.00 in - 0% 658 mhos 15000 - None None - -
02/13/2016 19:40 Chemically Wet 28.2F - 29F 3F 95 50% 0.00 in - 0% 657 mhos 15000 - None None - -
02/13/2016 19:36 Chemically Wet 28.2F - 29F 3F 95 50% 0.00 in - 0% 656 mhos 15000 - None None - -
02/13/2016 19:26 Chemically Wet 28.0F - 29F 3F 95 50% 0.00 in - 0% 655 mhos 15000 - None None - -
02/13/2016 19:25 Chemically Wet 28.0F - 29F 3F 95 50% 0.00 in - 0% 655 mhos 15000 - None None - -
02/13/2016 19:16 Chemically Wet 28.2F - 29F 3F 95 50% 0.00 in - 0% 654 mhos 15000 - None None - -
02/13/2016 19:10 Chemically Wet 28.6F - 29F 3F 95 50% 0.00 in - 0% 738 mhos 15000 - None None - -
02/13/2016 19:06 Chemically Wet 28.8F - 29F 3F 95 50% 0.00 in - 0% 845 mhos 15000 - None None - -
02/13/2016 18:56 Chemically Wet 29.1F - 29F 3F 95 50% 0.00 in - 0% 488 mhos 15000 - None None - -
Date/Time
(MST)
Sf
Temp Chem Water Layer Surface Precipitation
Sfc Pvt Sub Frz Factor Pct Dpth DpthThk IcePct Cond Salin FI Type Intens Accum Rate
02/13/2016 18:55 Chemically Wet 29.1F - 29F 3F 95 50% 0.00 in - 0% 417 mhos 15000 - None None - -
02/13/2016 18:46 Chemically Wet 29.3F - 29F 3F 95 50% 0.00 in - 0% 307 mhos 15000 - None None - -
02/13/2016 18:40 Chemically Wet 30.0F - 29F 25F 95 20% 0.40 in - 0% 46 mhos 5919 - None None - -
02/13/2016 18:36 Chemically Wet 30.6F - 29F 30F 95 8% 0.00 in - 0% 21 mhos 2337 - None None - -
02/13/2016 18:26 Chemically Wet 30.9F - 29F 31F 95 4% - - 52% 12 mhos 1227 - None None - -
02/13/2016 18:25 Chemically Wet 30.7F - 29F 31F 85 4% - - 57% 11 mhos 1198 - None None - -
02/13/2016 18:15 Chemically Wet 31.5F - 29F 31F 25 3% 0.20 in - 0% 8 mhos 797 - None None - -
02/13/2016 18:10 Chemically Wet 32.0F - 29F 31F 5 2% 0.20 in - 0% 6 mhos 647 - None None - -
02/13/2016 18:05 Wet 32.2F - 29F 32F 5 2% 0.70 in - 0% 5 mhos 518 - None None - -
02/13/2016 17:55 Wet 33.6F - 29F 32F 10 1% 0.60 in - 0% 4 mhos 401 - None None - -
02/13/2016 17:55 Wet 33.8F - 29F 32F 10 1% 0.60 in - 0% 4 mhos 400 - None None - -
02/13/2016 17:45 Wet 34.5F - 29F 32F 15 1% 1.00 in - 0% 4 mhos 396 - None None - -
02/13/2016 17:40 Wet 35.1F - 29F 32F 15 1% 0.90 in - 0% 4 mhos 395 - None None - -
02/13/2016 17:35 Wet 35.4F - 29F 32F 15 1% 0.70 in - 0% 4 mhos 397 - None None - -
02/13/2016 17:25 Wet 36.5F - 29F 32F 15 1% 0.70 in - 0% 4 mhos 393 - None None - -
Date/Time
(MST)
Sf
Temp Chem Water Layer Surface Precipitation
Sfc Pvt Sub Frz Factor Pct Dpth DpthThk IcePct Cond Salin FI Type Intens Accum Rate
02/13/2016 17:25 Wet 36.5F - 29F 32F 15 1% 0.70 in - 0% 4 mhos 393 - None None - -
02/13/2016 17:15 Wet 38.1F - 29F 32F 15 1% 0.70 in - 0% 4 mhos 392 - None None - -
02/13/2016 17:10 Wet 37.8F - 29F 32F 20 1% 1.20 in - 0% 4 mhos 397 - None None - -
02/13/2016 17:05 Wet 37.9F - 29F 32F 20 1% 1.10 in - 0% 4 mhos 402 - None None - -
02/13/2016 16:55 Wet 38.5F - 29F 32F 15 1% 0.50 in - 0% 5 mhos 418 - None None - -
02/13/2016 16:55 Wet 38.5F - 29F 32F 15 1% 0.50 in - 0% 5 mhos 418 - None None - -
02/13/2016 16:45 Wet 39.2F - 29F 32F 15 1% 0.50 in - 0% 5 mhos 429 - None None - -
02/13/2016 16:40 Wet 39.7F - 29F 32F 15 1% 0.50 in - 0% 5 mhos 438 - None None - -
02/13/2016 16:35 Wet 40.3F - 29F 32F 20 1% 0.60 in - 0% 5 mhos 449 - None None - -
02/13/2016 16:25 Wet 41.9F - 29F 32F 25 2% 0.60 in - 0% 5 mhos 488 - None None - -
02/13/2016 16:15 Wet 45.0F - 29F 31F 35 2% 0.60 in - 0% 7 mhos 579 - None None - -
02/13/2016 16:10 Wet 45.0F - 29F 31F 35 2% 0.40 in - 0% 8 mhos 656 - None None - -
02/13/2016 16:05 Wet 45.5F - 29F 31F 40 2% 0.30 in - 0% 9 mhos 746 - None None - -
02/13/2016 15:55 Wet 46.2F - 28F 31F 35 3% 0.20 in - 0% 11 mhos 970 - None None - -
02/13/2016 15:55 Wet 46.2F - 28F 31F 35 3% 0.20 in - 0% 11 mhos 970 - None None - -
Date/Time
(MST)
Sf
Temp Chem Water Layer Surface Precipitation
Sfc Pvt Sub Frz Factor Pct Dpth DpthThk IcePct Cond Salin FI Type Intens Accum Rate
02/13/2016 15:45 Wet 44.4F - 29F 31F 30 4% 0.10 in - 0% 13 mhos 1184 - None None - -
02/13/2016 15:40 Wet 46.2F - 28F 31F 40 4% 0.10 in - 0% 15 mhos 1295 - None None - -
02/13/2016 15:35 Wet 48.7F - 29F 31F 40 5% 0.10 in - 0% 18 mhos 1530 - None None - -
02/13/2016 15:25 Wet 48.7F - 28F 30F 45 7% 0.10 in - 0% 24 mhos 2083 - None None - -
02/13/2016 15:24 Wet 48.7F - 28F 30F 45 7% 0.10 in - 0% 24 mhos 2083 - None None - -
02/13/2016 15:14 Wet 48.7F - 28F 29F 45 10% 0.10 in - 0% 32 mhos 2909 - None None - -
02/13/2016 15:10 Wet 48.9F - 28F 28F 45 12% 0.00 in - 0% 38 mhos 3461 - None None - -
02/13/2016 15:04 Wet 49.3F - 29F 28F 50 14% 0.00 in - 0% 44 mhos 4111 - None None - -
02/13/2016 14:55 Wet 50.0F - 28F 25F 50 20% 0.00 in - 0% 59 mhos 5909 - None None - -
02/13/2016 14:54 Wet 50.0F - 28F 25F 50 20% 0.00 in - 0% 59 mhos 5909 - None None - -
02/13/2016 14:44 Wet 50.2F - 28F 19F 45 30% 0.00 in - 0% 79 mhos 9027 - None None - -
02/13/2016 14:40 Wet 50.2F - 28F 12F 45 40% 0.00 in - 0% 91 mhos 12053 - None None - -
02/13/2016 14:34 Wet 50.5F - 29F 3F 45 50% 0.00 in - 0% 103 mhos 15000 - None None - -
02/13/2016 14:25 Wet 50.4F - 28F 3F 35 50% 0.00 in - 0% 135 mhos 15000 - None None - -
02/13/2016 14:24 Wet 50.4F - 28F 3F 35 50% 0.00 in - 0% 135 mhos 15000 - None None - -
Date/Time
(MST)
Sf
Temp Chem Water Layer Surface Precipitation
Sfc Pvt Sub Frz Factor Pct Dpth DpthThk IcePct Cond Salin FI Type Intens Accum Rate
02/13/2016 14:14 Wet 50.0F - 28F 3F 35 50% 0.00 in - 0% 170 mhos 15000 - None None - -
02/13/2016 14:10 Wet 50.0F - 28F 3F 30 50% 0.00 in - 0% 192 mhos 15000 - None None - -
02/13/2016 14:04 Wet 49.5F - 28F 3F 40 50% 0.00 in - 0% 220 mhos 15000 - None None - -
02/13/2016 13:55 Wet 49.3F - 29F 3F 35 50% 0.00 in - 0% 283 mhos 15000 - None None - -
02/13/2016 13:54 Wet 49.3F - 28F 3F 30 50% 0.00 in - 0% 284 mhos 15000 - None None - -
02/13/2016 13:44 Wet 49.1F - 28F 3F 30 50% 0.00 in - 0% 351 mhos 15000 - None None - -
02/13/2016 13:40 Wet 48.6F - 28F 3F 20 50% 0.00 in - 0% 398 mhos 15000 - None None - -
02/13/2016 13:34 Wet 46.9F - 28F 3F 15 50% 0.00 in - 0% 427 mhos 15000 - None None - -
02/13/2016 13:25 Wet 41.7F - 28F 3F 5 50% 0.00 in - 0% 499 mhos 15000 - None None - -
02/13/2016 13:24 Wet 41.7F - 28F 3F 5 50% 0.00 in - 0% 499 mhos 15000 - None None - -
02/13/2016 13:14 Wet 42.4F - 28F 3F 5 50% 0.00 in - 0% 598 mhos 15000 - None None - -
02/13/2016 13:10 Wet 43.0F - 28F 3F 5 50% 0.00 in - 0% 598 mhos 15000 - None None - -
02/13/2016 13:04 Wet 43.2F - 28F 3F 5 50% 0.00 in - 0% 665 mhos 15000 - None None - -
02/13/2016 12:55 Wet 43.0F - 28F 3F 5 50% 0.00 in - 0% 857 mhos 15000 - None None - -
02/13/2016 12:54 Wet 43.0F - 28F 3F 5 50% 0.00 in - 0% 857 mhos 15000 - None None - -
Date/Time
(MST)
Sf
Temp Chem Water Layer Surface Precipitation
Sfc Pvt Sub Frz Factor Pct Dpth DpthThk IcePct Cond Salin FI Type Intens Accum Rate
02/13/2016 12:44 Wet 42.8F - 28F 3F 5 50% 0.00 in - 0% 1199 mhos 15000 - None None - -
02/13/2016 12:40 Wet 42.8F - 28F 3F 5 50% 0.00 in - 0% 1199 mhos 15000 - None None - -
02/13/2016 12:34 Wet 42.4F - 29F 3F 5 50% 0.00 in - 0% 1502 mhos 15000 - None None - -
02/13/2016 12:25 Wet 42.3F - 28F 3F 5 50% 0.00 in - 0% 2010 mhos 15000 - None None - -
02/13/2016 12:24 Wet 42.3F - 29F 3F 5 50% 0.00 in - 0% 2010 mhos 15000 - None None - -
02/13/2016 12:13 Wet 38.5F - 29F 3F 5 50% 0.70 in - 0% 2893 mhos 15000 - None None - -
02/13/2016 12:10 Wet 38.5F - 28F 3F 5 50% 0.70 in - 0% 2893 mhos 15000 - None None - -
02/13/2016 12:03 Wet 39.2F - 29F 3F 5 50% 0.00 in - 0% 3110 mhos 15000 - None None - -
02/13/2016 11:55 Wet 37.6F - 28F 3F 95 50% 0.00 in - 0% 3032 mhos 15000 - None None - -
02/13/2016 11:53 Wet 36.7F - 28F 3F 95 50% 0.00 in - 0% 3027 mhos 15000 - None None - -
02/13/2016 11:43 Wet 34.9F - 29F 3F 95 50% 0.00 in - 0% 3015 mhos 15000 - None None - -
02/13/2016 11:40 Wet 34.0F - 29F 3F 95 50% 0.00 in - 0% 3014 mhos 15000 - None None - -
02/13/2016 11:33 Wet 32.4F - 29F 3F 95 50% 0.00 in - 0% 3027 mhos 15000 - Yes - - -
02/13/2016 11:25 Wet 32.5F - 29F 3F 55 50% 0.00 in - 0% 3034 mhos 15000 - None None - -
02/13/2016 11:23 Wet 32.5F - 28F 3F 50 50% 0.00 in - 0% 3034 mhos 15000 - None None - -
Date/Time
(MST)
Sf
Temp Chem Water Layer Surface Precipitation
Sfc Pvt Sub Frz Factor Pct Dpth DpthThk IcePct Cond Salin FI Type Intens Accum Rate
02/13/2016 11:13 Wet 35.1F - 29F 3F 5 50% 0.70 in - 0% 2893 mhos 15000 - None None - -
02/13/2016 11:10 Wet 36.5F - 29F 3F 5 50% 0.70 in - 0% 2893 mhos 15000 - None None - -
02/13/2016 11:03 Wet 38.5F - 29F 3F 5 50% 0.00 in - 0% 3035 mhos 15000 - None None - -
02/13/2016 10:55 Wet 38.3F - 29F 3F 25 50% 0.00 in - 0% 3034 mhos 15000 - None None - -
02/13/2016 10:53 Wet 38.8F - 29F 3F 45 50% 0.00 in - 0% 2009 mhos 15000 - None None - -
02/13/2016 10:43 Wet 42.3F - 29F 3F 5 50% 0.70 in - 0% 1916 mhos 15000 - None None - -
02/13/2016 10:40 Wet 41.7F - 29F 3F 5 50% 4.40 in - 0% 1916 mhos 15000 - None None - -
02/13/2016 10:33 Wet 35.2F - 29F 3F 5 50% 0.70 in - 0% 1916 mhos 15000 - None None - -
02/13/2016 10:25 Wet 33.4F - 29F 3F 10 50% 0.00 in - 0% 2010 mhos 15000 - None None - -
02/13/2016 10:23 Wet 33.6F - 29F 3F 25 50% 0.00 in - 0% 2009 mhos 15000 - None None - -
02/13/2016 10:13 Wet 33.8F - 29F 3F 90 50% 0.00 in - 0% 2007 mhos 15000 - None None - -
02/13/2016 10:10 Wet 34.0F - 29F 3F 95 50% 0.00 in - 0% 2006 mhos 15000 - None None - -
02/13/2016 10:03 Wet 35.6F - 29F 3F 95 50% 0.00 in - 0% 2006 mhos 15000 - None None - -
02/13/2016 09:55 Wet 37.0F - 29F 3F 95 50% 0.00 in - 0% 3024 mhos 15000 - None None - -
02/13/2016 09:53 Error 36.1F - 29F - - - - - - 3020 mhos 15000 - None None - -
Date/Time
(MST)
Sf
Temp Chem Water Layer Surface Precipitation
Sfc Pvt Sub Frz Factor Pct Dpth DpthThk IcePct Cond Salin FI Type Intens Accum Rate
02/13/2016 09:43 Chemically Wet 30.7F - 29F 3F 95 50% 0.00 in - 0% 3019 mhos 15000 - None None - -
02/13/2016 09:40 Chemically Wet 31.5F - 29F 3F 95 50% 0.00 in - 0% 3022 mhos 15000 - None None - -
02/13/2016 09:33 Chemically Wet 30.6F - 29F 3F 95 50% 0.00 in - 0% 1495 mhos 15000 - None None - -
02/13/2016 09:25 Chemically Wet 30.4F - 29F 3F 40 50% 0.00 in - 0% 1198 mhos 15000 - Yes - - -
02/13/2016 09:23 Chemically Wet 30.6F - 29F 3F 20 50% 0.00 in - 0% 1199 mhos 15000 - None None - -
02/13/2016 09:12 Chemically Wet 30.6F - 29F 3F 5 50% 0.00 in - 0% 1001 mhos 15000 - None None - -
02/13/2016 09:10 Chemically Wet 30.7F - 29F 3F 20 50% 0.00 in - 0% 1001 mhos 15000 - None None - -
02/13/2016 09:02 Chemically Wet 28.9F - 29F 3F 95 50% 0.00 in - 0% 1196 mhos 15000 - None None - -
02/13/2016 08:55 Chemically Wet 25.7F - 29F 3F 95 50% 0.00 in - 0% 996 mhos 15000 - None None - -
02/13/2016 08:52 Chemically Wet 25.0F - 29F 3F 95 50% 0.00 in - 0% 995 mhos 15000 - None None - -
02/13/2016 08:42 Chemically Wet 23.2F - 29F 3F 95 50% 0.00 in - 0% 994 mhos 15000 - None None - -
02/13/2016 08:40 Chemically Wet 23.0F - 29F 3F 95 50% 0.00 in - 0% 993 mhos 15000 - None None - -
02/13/2016 08:32 Chemically Wet 22.3F - 29F 3F 95 50% 0.00 in - 0% 992 mhos 15000 - None None - -
02/13/2016 08:25 Chemically Wet 21.7F - 29F 3F 95 50% 0.00 in - 0% 992 mhos 15000 - None None - -
02/13/2016 08:22 Chemically Wet 21.7F - 29F 3F 95 50% 0.00 in - 0% 847 mhos 15000 - None None - -
Date/Time
(MST)
Sf
Temp Chem Water Layer Surface Precipitation
Sfc Pvt Sub Frz Factor Pct Dpth DpthThk IcePct Cond Salin FI Type Intens Accum Rate
02/13/2016 08:12 Chemically Wet 21.2F - 29F 3F 95 50% 0.00 in - 0% 847 mhos 15000 - None None - -
02/13/2016 08:10 Chemically Wet 21.2F - 29F 3F 95 50% 0.00 in - 0% 847 mhos 15000 - None None - -
02/13/2016 08:02 Chemically Wet 21.0F - 29F 3F 95 50% 0.00 in - 0% 655 mhos 15000 - None None - -
02/13/2016 07:55 Chemically Wet 21.0F - 29F 3F 95 50% 0.00 in - 0% 588 mhos 15000 - None None - -
02/13/2016 07:52 Chemically Wet 21.0F - 29F 3F 95 50% 0.00 in - 0% 588 mhos 15000 - None None - -
02/13/2016 07:42 Chemically Wet 20.7F - 29F 3F 95 50% 0.00 in - 0% 450 mhos 15000 - None None - -
02/13/2016 07:40 Chemically Wet 20.5F - 29F 3F 95 50% 0.00 in - 0% 417 mhos 15000 - None None - -
02/13/2016 07:32 Chemically Wet 20.5F - 29F 3F 95 50% 0.00 in - 0% 342 mhos 15000 - None None - -
02/13/2016 07:25 Chemically Wet 20.1F - 29F 3F 95 50% 0.00 in - 0% 275 mhos 15000 - None None - -
02/13/2016 07:22 Chemically Wet 19.9F - 29F 3F 95 50% 0.00 in - 0% 262 mhos 15000 - None None - -
02/13/2016 07:12 Chemically Wet 19.6F - 29F 3F 95 50% 0.10 in - 0% 213 mhos 15000 - None None - -
02/13/2016 07:10 Chemically Wet 19.9F - 29F 3F 95 50% 0.10 in - 0% 198 mhos 15000 - None None - -
02/13/2016 07:02 Chemically Wet 19.9F - 29F 3F 95 50% 0.10 in - 0% 179 mhos 15000 - None None - -
02/13/2016 06:55 Chemically Wet 20.3F - 29F 3F 95 50% 0.10 in - 0% 159 mhos 15000 - None None - -
02/13/2016 06:52 Chemically Wet 20.3F - 29F 3F 95 50% 0.10 in - 0% 150 mhos 15000 - None None - -
Date/Time
(MST)
Sf
Temp Chem Water Layer Surface Precipitation
Sfc Pvt Sub Frz Factor Pct Dpth DpthThk IcePct Cond Salin FI Type Intens Accum Rate
02/13/2016 06:42 Chemically Wet 20.7F - 29F 3F 95 50% 0.10 in - 0% 129 mhos 15000 - None None - -
02/13/2016 06:40 Chemically Wet 20.7F - 29F 3F 95 50% 0.10 in - 0% 129 mhos 15000 - None None - -
02/13/2016 06:32 Chemically Wet 20.5F - 29F 3F 95 50% 0.10 in - 0% 116 mhos 15000 - None None - -
02/13/2016 06:25 Chemically Wet 20.5F - 29F 3F 95 50% 0.10 in - 0% 112 mhos 15000 - None None - -
02/13/2016 06:22 Chemically Wet 20.7F - 29F 3F 95 50% 0.10 in - 0% 107 mhos 15000 - None None - -
02/13/2016 06:12 Chemically Wet 20.3F - 29F 3F 95 50% 0.10 in - 0% 100 mhos 15000 - None None - -
02/13/2016 06:10 Chemically Wet 20.3F - 29F 3F 95 50% 0.10 in - 0% 100 mhos 15000 - None None - -
02/13/2016 06:01 Chemically Wet 20.5F - 29F 3F 95 50% 0.10 in - 0% 97 mhos 15000 - None None - -
02/13/2016 05:55 Chemically Wet 20.8F - 29F 3F 95 50% 0.10 in - 0% 95 mhos 15000 - None None - -
02/13/2016 05:51 Chemically Wet 21.0F - 29F 3F 95 50% 0.10 in - 0% 95 mhos 15000 - None None - -
02/13/2016 05:41 Chemically Wet 20.8F - 29F 3F 95 50% 0.10 in - 0% 90 mhos 15000 - None None - -
02/13/2016 05:40 Chemically Wet 20.8F - 29F 3F 95 50% 0.10 in - 0% 90 mhos 15000 - None None - -
Change End Date:

Copyright © 1998-2015 Vaisala, Inc.
All Rights Reserved
Send comments about the data to:
SCAN Web ® is a registered trademark of Vaisala, Inc.
SCAN Web Version 6.0